User: anonymous   Login
Location: Radford
(37.1320°N, 80.5770°W)
Time: 19:42:09
(UTC-04:00)
Language:

Okean 1-7 - Orbit

View from above orbital plane
View from above orbital plane
View from above satellite
View from above satellite

Ground track
Ground track

The orbit data is extracted from the following two-line orbital elements,

1 23317U 94066A   16152.53564648  .00000376  00000-0  38994-4 0  9990
2 23317  82.5370 117.1529 0018296 250.0301 109.8945 14.87178621169216
Epoch (UTC): 31 May 2016 12:51:19
Eccentricity: 0.0018296
inclination: 82.5370°
perigee height: 594 km
apogee height: 619 km
right ascension of ascending node: 117.1529°
argument of perigee: 250.0301°
revolutions per day: 14.87178621
mean anomaly at epoch: 109.8945°
orbit number at epoch: 16921

The dashed part of the orbit path shows where the satellite is in the earth's shadow,  

DLR